RH
99 79 52 44 52 60 50 30 53 68 64 70 83 74 74 66 53 78 91 64 76 96 97 90 70 40 22 17 14 13 12 13 12 12 20 24 23 28 36 50 51 50 43 41 48 43 37
86 96 54 60 53 59 60 29 56 75 78 72 86 78 82 68 70 81 54 63 100 98 100 87 63 30 11 7 8 8 9 10 11 11 18 22 24 26 38 46 46 48 39 34 33 37 34
74 99 57 64 59 74 63 33 57 82 83 70 83 81 85 62 74 59 59 82 82 98 87 69 34 12 4 2 4 5 10 8 12 11 19 21 26 25 34 42 46 45 32 31 36 35 28
90 99 91 54 69 97 70 38 55 87 88 74 85 83 86 65 77 82 78 92 100 100 82 39 14 3 2 2 3 4 10 8 11 10 18 18 23 24 30 36 40 44 24 32 33 29 23
93 94 99 55 67 97 78 50 50 89 88 85 89 90 81 69 92 58 70 99 98 88 58 24 9 2 2 2 3 4 9 7 11 11 17 18 20 24 27 34 34 29 26 28 25 24 38
79 89 92 66 75 99 77 60 42 89 92 90 91 90 63 85 62 62 91 96 100 86 48 15 6 2 2 2 4 6 9 7 10 11 15 17 18 22 24 31 25 25 28 28 23 39 31
87 99 100 66 82 100 81 66 38 94 94 97 92 84 57 88 69 69 100 100 100 75 33 9 5 3 2 2 3 7 10 7 10 10 14 16 18 20 24 29 25 34 31 24 21 46 43
97 100 97 69 100 100 87 76 38 98 94 100 94 75 58 89 50 71 100 100 99 52 50 10 4 2 2 2 3 7 9 7 10 11 13 16 17 21 26 29 27 30 33 21 28 53 45
99 98 73 84 100 100 89 99 46 100 91 100 97 74 76 66 57 95 100 100 99 63 43 9 5 2 2 3 4 7 9 8 12 11 13 17 18 22 25 29 30 34 40 26 36 58 41
99 94 84 100 100 97 99 100 56 100 86 99 100 75 71 56 80 100 100 100 90 54 24 13 6 4 4 4 5 8 8 8 13 12 13 17 22 22 25 27 33 40 43 25 35 50 34
92 88 79 100 100 100 100 100 72 100 86 99 99 72 66 60 100 100 100 100 77 44 16 10 6 5 5 4 7 9 7 9 14 12 13 16 22 22 25 30 36 47 38 26 31 42 34
94 90 96 100 100 100 100 100 88 96 91 100 100 74 62 65 100 100 100 100 81 37 17 10 8 5 5 5 8 8 8 10 14 12 14 18 24 22 25 29 33 36 30 34 36 37 38
83 98 95 100 100 100 100 100 90 96 98 100 100 68 60 76 100 100 100 100 80 41 19 11 7 5 6 6 8 8 8 12 13 12 13 20 28 23 24 26 32 32 31 32 37 38 42
89 99 100 86 100 99 97 100 92 98 100 100 96 65 59 90 100 100 99 69 65 36 19 13 7 6 6 6 8 7 8 13 14 12 14 18 22 27 23 22 29 35 35 37 40 44 47
82 100 99 88 98 89 96 95 99 97 100 100 93 60 63 99 100 100 92 69 74 37 21 14 10 10 7 7 7 7 9 14 15 14 14 20 25 28 23 21 24 30 29 36 42 40 42
75 100 98 93 79 75 92 97 95 100 100 98 92 61 60 100 100 100 91 90 77 45 29 22 13 13 10 8 8 8 10 15 15 15 16 20 27 31 25 19 20 24 29 26 34 37 39
68 100 89 76 86 77 86 94 91 100 100 96 98 65 56 100 88 100 88 86 88 49 28 24 19 18 17 14 13 11 11 12 16 16 17 19 26 31 24 20 22 23 24 28 31 33 36
70 100 96 89 96 99 82 92 92 100 100 92 100 66 58 100 99 100 100 73 71 55 32 26 25 22 19 22 19 18 15 14 16 16 18 19 25 32 26 24 24 22 23 24 28 28 30
70 89 85 93 82 95 83 91 91 100 100 96 100 76 80 98 66 100 100 88 66 57 38 27 28 30 26 23 19 13 11 12 13 16 17 18 20 28 29 24 20 22 24 25 27 29 30
62 76 90 89 70 92 86 92 87 100 100 98 100 82 70 100 66 100 100 100 77 62 40 32 32 33 30 27 22 19 14 12 13 15 15 16 18 21 28 34 36 35 33 30 26 25 28
47 78 85 80 70 92 85 90 86 100 100 100 100 85 72 100 100 99 99 100 99 67 49 41 34 32 26 23 23 21 19 17 13 13 15 16 16 17 20 27 28 30 30 27 26 26 25
38 69 92 91 86 85 79 92 89 100 98 99 100 100 69 93 100 100 100 92 100 98 58 50 45 32 31 28 21 18 18 18 16 16 14 15 17 16 16 18 21 23 22 22 24 25 28
35 64 95 86 91 86 84 78 89 100 97 100 100 100 67 99 94 94 100 100 100 100 88 59 64 40 32 30 27 26 22 20 16 14 14 14 14 17 19 18 18 18 18 18 20 21 26
29 66 92 95 91 90 83 63 99 100 91 100 100 100 99 81 100 84 100 100 94 100 100 100 68 63 55 32 31 32 34 29 26 25 23 19 16 15 16 16 19 21 19 20 22 22 22
29 62 90 91 89 98 90 60 96 100 92 100 98 100 100 64 100 76 100 100 99 100 100 100 100 86 71 68 57 46 34 31 31 29 28 27 26 25 22 23 24 22 22 21 20 20 20
26 55 87 83 92 94 91 58 92 100 96 100 99 100 100 61 85 95 71 100 100 100 100 100 100 100 94 92 86 78 78 73 52 38 39 36 29 24 26 29 30 26 23 23 22 27 27
21 45 80 87 90 96 81 58 95 100 97 100 100 87 97 55 69 91 86 93 97 95 94 98 98 100 100 100 100 100 89 67 60 62 61 57 60 54 43 43 46 32 27 24 24 35 31
23 43 69 84 93 100 69 56 88 100 98 100 99 75 97 54 64 68 94 84 76 89 83 83 95 100 100 100 96 100 100 98 84 71 67 67 62 60 58 56 56 49 41 42 49 46 49
21 42 65 83 95 100 62 46 72 99 99 100 100 78 88 56 54 68 76 91 93 78 84 95 91 82 95 100 100 100 100 100 98 88 100 100 98 84 86 75 73 70 70 62 69 74 87
Wind_Speed
49 50 52 49 48 48 46 45 45 48 53 56 56 56 54 57 53 48 53 53 52 55 60 70 78 80 71 70 86 98 100 98 104 96 89 79 72 63 56 58 55 53 54 49 46 46 47
53 51 52 49 49 50 46 45 46 48 52 57 58 55 56 58 50 49 54 54 50 54 56 68 78 76 65 54 77 95 103 101 107 98 92 82 73 68 62 59 55 54 51 44 42 45 43
53 52 50 50 47 48 46 45 45 48 51 56 58 54 56 57 49 53 48 49 50 54 62 74 74 68 48 54 64 88 106 103 105 100 94 84 79 71 64 61 59 52 46 44 45 44 42
57 54 53 50 47 48 47 45 44 47 51 56 58 52 55 53 48 51 53 47 54 59 60 65 61 51 39 48 63 83 107 105 103 103 97 89 81 74 68 62 60 54 45 45 44 44 37
59 54 53 51 46 48 47 46 45 46 50 54 58 52 56 48 47 52 51 51 54 59 57 57 45 38 40 49 61 82 107 105 101 104 100 92 82 75 68 63 58 53 47 46 45 35 32
61 57 56 52 47 48 47 46 45 45 49 52 56 50 55 44 47 45 45 53 61 61 54 45 36 34 45 50 59 81 105 103 101 106 102 93 81 75 67 61 51 51 51 45 42 33 31
64 57 55 51 46 46 48 46 45 43 48 50 53 51 50 43 44 46 51 62 65 60 52 37 31 33 43 50 61 83 102 101 100 106 99 90 79 69 62 61 63 59 51 45 39 34 33
65 60 55 47 45 45 47 44 45 41 47 49 48 52 46 41 41 46 55 65 64 53 50 39 25 28 40 49 63 87 101 99 98 102 99 92 76 72 69 68 66 59 52 48 40 39 34
73 62 55 47 46 45 46 43 44 40 46 47 46 50 41 38 41 49 55 61 58 53 44 31 18 23 33 48 63 90 100 97 96 103 96 83 74 76 72 68 62 58 54 50 43 39 35
74 65 53 48 47 45 43 43 43 40 44 45 43 48 38 36 39 46 55 59 51 49 34 31 15 19 29 48 67 92 99 95 95 100 93 85 83 77 72 68 63 59 59 50 42 39 37
69 64 53 49 47 45 42 40 41 39 43 43 41 44 34 30 37 42 50 52 47 45 36 24 12 16 30 52 72 93 95 91 95 98 93 86 81 76 72 71 69 65 57 47 41 39 39
68 64 51 49 45 45 44 40 39 37 41 41 37 40 29 24 31 41 45 47 45 43 36 23 12 18 36 61 80 88 90 89 95 98 94 88 83 80 77 76 71 65 54 49 45 41 41
63 67 53 49 44 45 43 38 36 35 38 38 35 37 26 20 28 37 38 39 39 39 32 23 5 22 39 65 77 82 84 87 95 97 94 91 86 80 77 75 69 61 52 49 45 42 46
65 63 57 51 48 46 42 36 33 32 35 36 33 34 20 15 23 33 32 27 31 33 27 17 7 23 42 57 69 76 79 81 88 91 90 84 82 78 75 72 67 62 54 51 47 47 46
62 68 60 53 51 47 41 33 32 30 32 33 30 27 16 11 19 26 26 20 26 29 26 19 19 25 38 48 57 64 70 72 83 88 84 82 77 75 71 69 70 61 51 53 52 49 47
64 65 63 57 51 47 38 31 31 27 30 31 28 20 12 7 14 18 20 13 19 24 25 23 21 26 31 33 42 56 57 62 79 87 83 79 78 75 73 69 64 62 60 52 51 52 51
65 67 64 57 52 46 36 30 29 25 27 26 25 15 8 5 9 11 16 3 11 16 20 21 23 28 24 27 29 39 46 54 72 84 82 79 77 76 74 68 67 68 61 58 56 52 52
67 67 67 56 51 44 35 30 29 24 25 22 21 14 8 7 6 3 13 4 7 10 15 18 18 20 28 29 31 34 43 52 62 81 84 80 77 73 72 72 70 67 66 61 58 58 57
68 70 65 57 50 43 36 31 28 25 22 19 17 12 10 12 7 5 5 4 5 8 14 17 17 18 17 23 27 35 42 49 55 73 83 83 80 76 73 70 65 64 65 65 68 67 63
70 69 65 59 52 45 38 33 28 25 20 18 14 14 14 14 12 9 4 8 5 10 14 16 18 20 19 20 22 26 34 41 48 59 81 87 84 79 75 76 78 75 73 71 67 62 65
72 71 65 58 51 46 39 35 29 25 19 17 13 15 19 21 14 12 9 6 2 13 15 15 19 20 20 23 24 27 31 36 42 48 59 76 84 84 82 81 78 76 74 71 66 66 62
75 70 68 62 53 48 43 37 32 26 20 17 13 13 22 23 22 17 17 8 6 3 17 21 20 21 20 20 24 29 31 33 40 45 49 54 66 80 86 85 83 81 78 74 71 69 69
74 70 69 61 54 50 43 39 33 28 21 18 15 14 21 26 25 23 18 14 12 7 9 21 21 22 23 21 19 19 23 28 32 39 44 47 52 59 67 76 80 79 79 78 76 73 70
77 72 69 63 60 53 45 42 35 30 22 19 17 17 15 32 28 30 24 19 19 16 11 8 22 22 21 23 24 24 25 24 25 27 30 34 40 46 50 55 60 66 68 68 68 69 67
78 75 70 66 61 55 48 44 36 31 23 23 19 18 15 37 35 33 29 25 23 21 17 15 11 22 28 25 23 23 24 24 25 26 27 28 30 34 39 43 50 56 59 60 61 62 61
81 79 74 68 63 57 51 46 39 33 26 23 20 19 17 39 41 36 36 29 26 27 22 21 17 12 15 22 26 28 29 26 25 25 28 28 28 30 32 35 40 47 49 50 51 52 54
82 80 76 70 64 57 53 47 41 35 29 24 20 19 17 34 45 42 37 36 32 30 27 25 22 21 20 18 19 21 24 31 34 32 29 28 30 30 32 35 36 41 43 45 46 49 51
82 83 79 73 67 60 56 49 42 37 30 26 20 18 16 29 45 46 42 40 38 33 28 26 26 25 21 24 26 25 22 22 24 29 33 37 38 39 39 39 42 43 42 44 47 50 51
85 86 80 75 69 63 58 52 45 39 32 27 21 16 16 22 39 45 46 44 40 40 36 33 30 29 31 28 25 24 22 24 25 25 24 24 26 26 25 27 32 34 36 39 39 42 42
Wind_Direction
274 272 284 284 288 292 294 292 295 302 306 310 311 309 310 312 311 293 288 290 290 283 286 282 277 273 269 246 236 218 219 216 216 214 217 216 219 216 214 212 214 216 223 224 225 231 235
269 268 280 282 286 293 296 292 294 303 307 310 312 311 311 313 303 292 297 296 290 293 292 283 280 278 274 253 231 216 216 213 213 210 214 213 214 213 210 208 211 215 220 219 221 221 226
266 267 277 279 284 290 297 294 295 303 305 309 313 312 313 315 301 302 305 298 306 307 292 284 282 281 273 241 225 213 210 211 210 206 210 210 209 210 205 205 209 214 216 212 209 213 218
262 268 273 280 279 287 295 294 293 301 305 310 313 313 313 313 305 301 307 306 316 316 302 291 287 278 255 234 219 209 205 207 206 203 206 208 207 207 203 202 203 209 209 199 204 209 210
261 265 268 277 278 284 292 294 293 302 306 311 313 314 315 310 303 309 306 320 322 317 308 298 284 270 238 225 216 204 202 203 201 200 203 205 203 203 201 199 200 205 205 197 201 203 216
257 261 267 273 277 281 288 294 294 302 305 312 313 314 318 308 312 312 322 326 330 326 317 306 280 252 227 217 210 198 199 200 198 198 200 203 200 199 198 196 197 200 203 201 198 205 219
253 256 261 272 274 276 284 292 294 302 305 311 314 314 320 306 311 313 334 336 332 331 321 312 274 251 220 210 207 195 197 197 196 196 198 200 198 194 195 195 197 201 204 204 197 208 219
252 252 255 265 269 273 281 291 293 301 304 311 314 315 322 311 318 329 338 333 335 335 330 315 285 240 217 209 203 195 196 194 193 194 195 196 192 190 195 196 199 199 205 207 201 212 219
250 248 253 261 266 269 277 288 292 300 303 311 314 317 319 314 324 334 335 332 338 339 332 314 281 234 216 205 198 191 191 190 190 193 193 192 190 193 196 197 200 201 205 209 207 214 222
248 245 247 257 263 265 274 285 290 297 302 311 313 318 316 321 330 333 336 333 341 343 339 327 292 231 208 197 190 189 189 187 189 191 190 189 192 193 195 197 199 201 207 210 210 217 228
248 243 242 250 257 260 269 282 288 295 301 311 314 322 315 328 328 333 338 334 345 346 348 338 295 225 196 186 188 189 186 184 187 189 189 190 191 192 194 197 200 203 207 210 212 220 230
243 243 235 243 249 255 264 276 285 293 300 310 311 322 315 331 330 338 339 341 350 347 352 347 309 203 189 181 186 186 182 183 187 188 187 191 192 192 196 199 202 204 207 209 212 219 228
236 237 229 236 242 252 258 270 281 291 299 308 312 323 311 330 335 334 344 344 356 353 356 349 327 187 182 178 184 181 179 184 187 187 187 191 192 194 199 201 204 207 209 213 215 219 232
228 232 229 231 238 248 253 265 275 286 296 305 311 321 308 329 333 332 342 352 10 11 12 15 120 167 173 175 179 177 180 183 186 186 189 192 195 197 202 203 204 209 210 215 219 223 234
221 224 226 230 234 243 249 259 270 281 292 302 310 319 298 318 331 336 343 14 24 31 40 58 106 145 167 169 174 176 180 183 186 189 192 194 197 201 205 206 208 212 213 217 222 227 236
217 217 225 230 232 238 244 254 265 277 288 298 308 314 297 308 328 337 336 23 41 52 58 71 105 134 152 164 174 177 180 185 189 190 195 198 200 204 208 210 213 216 219 222 227 233 238
212 213 222 228 229 233 239 248 259 270 283 294 308 295 274 262 314 324 328 13 64 76 81 91 112 124 139 155 166 178 184 189 193 194 198 201 206 207 211 213 215 219 222 226 231 236 243
210 210 217 223 222 225 231 241 253 262 278 288 302 293 234 205 278 322 342 259 117 105 107 110 117 135 151 162 172 181 189 192 195 197 201 203 208 211 213 215 218 222 227 230 236 241 245
207 209 212 216 217 221 227 235 245 253 271 280 300 295 225 205 228 138 341 330 184 149 134 134 130 138 156 166 177 185 188 193 196 199 204 207 209 212 215 221 226 229 231 233 236 240 244
205 207 208 211 214 218 223 229 238 245 264 272 278 303 219 184 202 184 137 51 257 187 162 157 152 152 160 170 181 186 189 193 197 201 206 209 212 214 215 218 221 225 230 233 238 242 245
203 201 203 208 208 214 219 224 232 238 253 261 263 304 213 177 191 199 176 111 40 212 177 174 167 166 173 172 179 188 191 194 197 200 205 211 215 217 220 223 227 230 235 239 242 245 250
202 199 202 204 207 214 214 216 229 231 244 248 247 295 210 184 192 191 185 168 129 165 192 176 179 177 180 184 182 181 182 191 195 198 202 207 215 220 223 226 229 233 237 240 243 246 248
201 195 197 200 203 210 211 214 222 227 235 239 236 258 220 197 203 186 196 183 172 140 178 192 184 191 192 184 178 181 182 185 194 200 202 206 210 215 220 226 230 233 236 239 242 245 247
199 192 195 200 203 208 207 212 217 222 225 233 232 252 252 202 205 195 191 199 174 158 142 169 195 192 201 202 193 186 186 189 190 193 200 210 215 217 220 223 225 228 233 236 239 243 246
197 193 195 199 200 204 205 208 214 219 222 229 231 247 276 205 200 199 189 194 184 168 168 163 180 201 200 207 209 210 208 203 200 198 199 204 210 215 218 220 225 229 231 235 239 244 247
199 193 193 196 198 202 204 205 209 214 218 225 232 247 272 208 202 205 195 196 196 189 172 173 166 173 203 209 215 212 212 212 215 218 217 215 215 216 218 222 228 231 232 234 238 241 244
198 193 194 195 197 200 202 201 205 210 217 223 233 242 263 211 204 202 205 193 200 200 198 188 185 185 180 182 191 208 221 224 217 215 218 219 223 225 229 230 234 237 238 240 240 243 246
196 194 192 194 195 198 198 200 204 208 214 220 231 236 251 215 205 202 205 202 201 202 199 202 201 196 195 199 195 192 201 208 216 223 226 228 230 233 234 236 239 242 243 246 251 253 257
196 194 191 193 193 196 197 199 203 208 211 217 222 226 234 224 209 206 206 209 215 210 210 211 213 210 210 207 209 204 206 206 212 210 209 215 219 218 227 233 239 243 245 248 249 250 251